星链-37603(STARLINK-37603)

导读

STARLINK-37603(NORAD 编号69846)是美国太空探索技术公司(SpaceX)星链(Starlink)低轨卫星互联网星座的组网卫星,属于Starlink V2 Mini批次,于2026年6月由猎鹰9号火箭发射入轨,运行在倾角约53°的近地轨道,轨道高度约340千米,轨道周期约91分钟,搭载星间激光链路与相控阵通信载荷,主要为全球包括偏远、海洋区域提供低时延高速卫星互联网接入服务,是星链星座持续扩容、提升全球覆盖能力的组成单元。

Basic Information
目录编号:
69846
目录名称:
STARLINK-37603
国际标识:
2026-154AD
轨道中心:
EARTH
卫星名称:
星链-37603
卫星全名:
星链-37603(STARLINK-37603)
卫星状态:
在轨 (已飞行61 天)
发射日期:
2026-07-05 UTC
国别 :
美国 (US)
星等 :
--
Orbit Information
数据来源 国际轨道数据
星历时间: 2026-09-03T18:37:46+0800
17小时前
查看轨道信息
半长轴: 6840.938km
偏心率: 0.0001316
轨道倾角: 53.161°
近地点辐角 76.283°
升交点赤经 51.127°
平近点角 283.832°
近地点: 461.9km
远地点: 463.702km
周期: 93.850分钟
每日圈数: 15.343673
Detailed Information
固有亮度:
5
最大亮度:
2.5
卫星平台:
Starlink V1.0
覆盖范围:
全球
运营商:
太空探索技术公司
运营商所在国:
美国
制造商(研发单位):
太空探索技术公司
制造商所在国:
美国
使用方式:
暂无
Satellite Introduction
Starlink 计划是 SpaceX 推出的全球卫星互联网项目,通过发射低轨道卫星,为全球尤其是偏远地区提供高速、低延迟的互联网服务。自 2019 年起,Starlink 已部署数千颗卫星,旨在缩小全球数字鸿沟,推动互联网普及。该项目还为军事、航空等行业提供通信支持,带来广泛经济效益。
2D Orbit Map
3D Orbit Map
Orbit Altitude Analysis Chart
Orbit Inclination Analysis Chart
Orbit Comprehensive Analysis Chart
View Comprehensive Chart
Conjunction Data List
Event ID Objects TCA Miss Dist (km) Collision Risk Probability Collision Risk Index (CRI) Action
CDM_260905-040306-924306-984621
2026-09-05T
04:03:04+0000
1.024 km
极远距离
2.182713E-5 中风险 0.62
CDM_260903-053405-926506-984622
2026-09-03T
05:34:25+0000
0.785 km
远距离
1.758903E-5 中风险 0.6
CDM_260905-045006-568206-984621
2026-09-05T
04:50:30+0000
1.123 km
极远距离
1.586268E-5 中风险 0.59
CDM_260905-013706-826606-984621
2026-09-05T
01:37:25+0000
1.139 km
极远距离
1.490732E-5 中风险 0.58
CDM_260904-130706-019906-984621
2026-09-04T
13:07:57+0000
1.271 km
极远距离
1.020722E-5 中风险 0.55
CDM_260904-025806-019906-984621
2026-09-04T
02:58:20+0000
1.340 km
极远距离
8.516929E-6 低风险 0.54
CDM_260904-012406-013506-984622
2026-09-04T
01:24:11+0000
1.418 km
极远距离
7.019521E-6 低风险 0.52
CDM_260903-224205-226206-984621
2026-09-03T
22:42:22+0000
1.059 km
极远距离
6.671422E-6 低风险 0.51
CDM_260904-113306-013506-984622
2026-09-04T
11:33:48+0000
1.672 km
极远距离
4.142788E-6 低风险 0.47
CDM_260904-202006-590406-984621
2026-09-04T
20:20:03+0000
1.945 km
极远距离
2.661407E-6 低风险 0.44